DW8462 Weather Reports


time (UTC)temp
C
wind
direction
speed
KPH
gust
KPH
rain 1hr
cm
rain 24hr
cm
rain mn
cm
humidity
%
barometer
mb
20260906021533 22 360 0.0 0.0 0.00 0.00 0.00 87 1014.2
20260906020048 22 360 0.0 0.0 0.00 0.00 0.00 87 1014.2
20260906014533 22 38 0.0 0.0 0.00 0.00 0.00 88 1014.0
20260906013027 22 360 0.0 0.0 0.00 0.00 0.00 90 1013.9
20260906011526 22 360 0.0 0.0 0.00 0.00 0.00 90 1013.8
20260906010023 22 360 0.0 0.0 0.00 0.00 0.00 90 1013.7
20260906004519 22 360 0.0 0.0 0.00 0.00 0.00 89 1013.3
20260906003023 23 360 0.0 0.0 0.00 0.00 0.00 88 1013.0
20260906001515 23 360 0.0 0.0 0.00 0.00 0.00 87 1013.0
20260906000014 24 360 0.0 0.0 0.00 0.00 0.00 86 1013.1
20260905234545 25 360 0.0 0.0 0.00 0.00 0.00 84 1013.0
20260905233045 25 360 0.0 0.0 0.00 0.00 0.00 82 1012.9
20260905231537 26 360 0.0 0.0 0.00 0.00 0.00 83 1012.5
20260905230037 26 360 0.0 0.0 0.00 0.00 0.00 81 1012.5
20260905224536 26 360 0.0 0.0 0.00 0.00 0.00 80 1012.3
20260905223040 27 360 0.0 0.0 0.00 0.00 0.00 79 1012.2
20260905221543 27 360 0.0 0.0 0.00 0.00 0.00 78 1012.2
20260905220034 28 360 0.0 0.0 0.00 0.00 0.00 77 1012.0
20260905214532 28 360 0.0 0.0 0.00 0.00 0.00 75 1011.9
20260905213034 28 360 0.0 0.0 0.00 0.00 0.00 74 1011.8
20260905211541 29 360 0.0 0.0 0.00 0.00 0.00 72 1011.7
20260905210029 30 360 0.0 0.0 0.00 0.00 0.00 73 1011.7
20260905204529 30 360 0.0 0.0 0.00 0.00 0.00 72 1011.8
20260905203032 30 360 0.0 0.0 0.00 0.00 0.00 72 1011.7
20260905201525 31 360 0.0 0.0 0.00 0.00 0.00 70 1011.7
20260905200035 31 5 0.0 0.0 0.00 0.00 0.00 71 1011.7
20260905194524 31 360 0.0 0.0 0.00 0.00 0.00 70 1011.7
20260905193024 32 360 0.0 0.0 0.00 0.00 0.00 70 1011.8
20260905191521 32 9 0.0 0.0 0.00 0.00 0.00 71 1011.8
20260905190020 32 360 0.0 0.0 0.00 0.00 0.00 71 1011.8
20260905184521 31 5 0.0 0.0 0.00 0.00 0.00 74 1012.0
20260905183019 31 360 0.0 0.0 0.00 0.00 0.00 74 1012.1
20260905181517 31 360 0.0 0.0 0.00 0.00 0.00 74 1012.1
20260905180016 32 360 0.0 0.0 0.00 0.00 0.00 74 1012.0
20260905174515 32 360 0.0 0.0 0.00 0.00 0.00 75 1012.0
20260905173014 32 360 0.0 0.0 0.00 0.00 0.00 74 1012.1
20260905171557 32 23 0.0 0.0 0.00 0.00 0.00 74 1012.1
20260905170043 31 9 0.0 0.0 0.00 0.00 0.00 75 1012.2
20260905164541 31 360 0.0 0.0 0.00 0.00 0.00 75 1012.4
20260905163037 31 5 0.0 0.0 0.00 0.00 0.00 74 1012.4
20260905161540 31 349 0.0 0.0 0.00 0.00 0.00 77 1012.4
20260905160044 31 360 0.0 0.0 0.00 0.00 0.00 79 1012.3
20260905154546 30 26 0.0 0.0 0.00 0.00 0.00 80 1012.4
20260905153029 30 23 0.0 0.0 0.00 0.00 0.00 80 1012.3
20260905151530 30 355 0.0 0.0 0.00 0.00 0.00 79 1012.2
20260905150025 30 360 0.0 0.0 0.00 0.00 0.00 82 1012.2
20260905144533 30 346 0.0 0.0 0.00 0.00 0.00 81 1012.0
20260905143017 29 17 0.0 0.0 0.00 0.00 0.00 82 1011.9
20260905141515 28 24 0.0 0.0 0.00 0.00 0.00 84 1011.8
20260905140010 27 27 0.0 0.0 0.00 0.00 0.00 87 1012.1
20260905134507 27 27 0.0 0.0 0.00 0.00 0.00 90 1012.3
20260905133101 26 30 0.0 0.0 0.00 0.00 0.00 94 1012.1
20260905131602 25 28 0.0 0.0 0.00 0.00 0.00 95 1011.9
20260905130058 25 28 0.0 0.0 0.00 0.00 0.00 95 1011.8
20260905124600 24 28 0.0 0.0 0.00 0.00 0.00 95 1012.0
20260905124556 24 28 0.0 0.0 0.00 0.00 0.00 95 1011.9
20260905123052 24 28 0.0 0.0 0.00 0.00 0.00 95 1011.7
20260905121552 23 28 0.0 0.0 0.00 0.00 0.00 95 1011.7
20260905120051 23 28 0.0 0.0 0.00 0.00 0.00 95 1011.6
20260905114607 23 28 0.0 0.0 0.00 0.00 0.00 94 1011.4
20260905113047 23 28 0.0 0.0 0.00 0.00 0.00 94 1011.4
20260905111552 23 28 0.0 0.0 0.00 0.00 0.00 94 1011.3
20260905110046 23 28 0.0 0.0 0.00 0.00 0.00 94 1011.1
20260905104550 23 28 0.0 0.0 0.00 0.00 0.00 93 1011.0
20260905103018 23 167 0.0 0.0 0.00 0.00 0.00 91 1011.1
20260905101512 24 167 0.0 0.0 0.00 0.00 0.00 91 1011.2
20260905100009 25 167 0.0 0.0 0.00 0.00 0.00 91 1011.1
20260905094509 25 167 0.0 0.0 0.00 0.00 0.00 91 1011.1
20260905093008 25 167 0.0 0.0 0.00 0.00 0.00 91 1011.0
20260905091508 25 167 0.0 0.0 0.00 0.00 0.00 92 1011.0
20260905090005 25 167 0.0 0.0 0.00 0.00 0.00 92 1011.1
20260905084511 25 167 0.0 0.0 0.00 0.00 0.00 92 1011.1
20260905083005 25 167 0.0 0.0 0.00 0.00 0.00 92 1011.1
20260905081504 25 167 0.0 0.0 0.00 0.00 0.00 92 1011.1
20260905080002 25 167 0.0 0.0 0.00 0.00 0.00 93 1011.1
20260905074501 24 167 0.0 0.0 0.00 0.00 0.00 93 1011.1
20260905073102 24 167 0.0 0.0 0.00 0.00 0.00 94 1011.1
20260905071604 24 167 0.0 0.0 0.00 0.00 0.00 93 1011.0
20260905070055 24 167 0.0 0.0 0.00 0.00 0.00 92 1011.2
20260905064556 25 167 0.0 0.0 0.00 0.00 0.00 92 1011.1
20260905063050 25 167 0.0 0.0 0.00 0.00 0.00 92 1011.3
20260905061607 25 167 0.0 0.0 0.00 0.00 0.00 92 1011.4
20260905060046 25 167 0.0 0.0 0.00 0.00 0.00 92 1011.6
20260905054544 25 166 0.0 0.0 0.00 0.00 0.00 91 1011.6
20260905053042 26 166 0.0 0.0 0.00 0.00 0.00 91 1011.7
20260905051544 25 167 0.0 0.0 0.00 0.00 0.00 92 1011.7
20260905050037 25 166 0.0 0.0 0.00 0.00 0.00 93 1011.8
20260905044536 25 166 0.0 0.0 0.00 0.00 0.00 92 1011.8
20260905043103 26 166 0.0 0.0 0.00 0.00 0.00 92 1011.9
20260905041535 26 166 0.0 0.0 0.00 0.00 0.00 92 1011.9
20260905040040 26 166 0.0 0.0 0.00 0.00 0.00 92 1012.0
20260905034533 26 166 0.0 0.0 0.00 0.00 0.00 93 1011.9
20260905033038 26 166 0.0 0.0 0.00 0.00 0.00 92 1012.0
20260905031530 26 166 0.0 0.0 0.00 0.00 0.00 91 1012.1
20260905030028 26 166 0.0 0.0 0.00 0.00 0.00 92 1012.0
20260905024527 26 166 0.0 0.0 0.00 0.00 0.00 92 1011.9
20260905023029 26 166 0.0 0.0 0.00 0.00 0.00 91 1011.7